Hourly Data Report for August 10, 2015

All times are specified in Local Standard Time (LST). Add 1 hour to adjust for Daylight Saving Time where and when it is observed.

TORONTO INTL A
ONTARIO

43°40'36.000" N
79°37'50.000" W
173.40 m
6158731
71624
YYZ

Download Data

Hourly Data (August 2015)
Hourly Data Report for August 10, 2015
Temp Definition
°C
Dew Point Temp Definition
°C
Rel Hum Definition
%
Wind Dir Definition
10's deg

Wind Spd Definition
km/h
Visibility Definition
km
Stn Press Definition
kPa
Hmdx Definition


Wind Chill Definition


Weather Definition


TIME
00:00 Legend Double Dagger 19.5 10.6 56 36 3 24.1 99.49     LegendNANA
01:00 Legend Double Dagger 17.6 10.6 63 3 8 24.1 99.44     Mainly Clear
02:00 Legend Double Dagger 16.8 11.4 70 33 5 24.1 99.41     LegendNANA
03:00 Legend Double Dagger 15.7 11.5 76 1 9 24.1 99.36     LegendNANA
04:00 Legend Double Dagger 16.1 11.5 74 36 5 24.1 99.34     Mainly Clear
05:00 Legend Double Dagger 15.3 10.7 74 2 8 24.1 99.32     LegendNANA
06:00 Legend Double Dagger 16.8 12.0 73 2 7 24.1 99.31     LegendNANA
07:00 Legend Double Dagger 18.2 12.5 69 35 3 24.1 99.32     Mostly Cloudy
08:00 Legend Double Dagger 20.1 13.2 64 4 7 24.1 99.30     LegendNANA
09:00 Legend Double Dagger 22.0 15.2 65 11 11 24.1 99.25 26   LegendNANA
10:00 Legend Double Dagger 22.1 15.3 65 10 14 24.1 99.21 26   Mostly Cloudy
11:00 Legend Double Dagger 22.1 16.5 70 17 14 24.1 99.20 27   LegendNANA
12:00 Legend Double Dagger 22.0 16.4 70 12 11 24.1 99.15 27   LegendNANA
13:00 Legend Double Dagger 18.7 17.1 90 1 13 8.1 99.15     Thunderstorms,Moderate Rain Showers
14:00 Legend Double Dagger 18.2 17.1 93 5 11 9.7 99.06     Moderate Rain Showers
15:00 Legend Double Dagger 18.5 17.5 94 1 11 9.7 99.00     Moderate Rain Showers,Fog
16:00 Legend Double Dagger 17.9 16.9 94 36 22 2.8 98.96     Thunderstorms,Heavy Rain Showers
17:00 Legend Double Dagger 17.9 17.3 96 1 10 6.4 98.93     Heavy Rain Showers
18:00 Legend Double Dagger 18.6 17.8 95 15 11 9.7 98.86     Rain Showers,Fog
19:00 Legend Double Dagger 18.0 17.2 95 15 9 6.4 98.85     Rain Showers,Fog
20:00 Legend Double Dagger 18.2 17.1 93 19 7 12.9 98.87     LegendNANA
21:00 Legend Double Dagger 18.4 17.3 93 36 1 19.3 98.83     LegendNANA
22:00 Legend Double Dagger 18.7 17.6 93 30 4 19.3 98.80     Mostly Cloudy
23:00 Legend Double Dagger 18.7 17.7 94 30 13 9.7 98.79     Fog

Notes on Data Quality.

Legend

  • E = Estimated
  • M = Missing
  • NA = Not Available
  • ‡ = Partner data that is not subject to review by the National Climate Archives
Date modified: